Flight Track Log - Related Links

Times and Time Zones

All times are in EDT time to prevent confusion due to time zone crossing. See the N1218P flight status page for this flight to view local times or setup timezone preferences in your user account.

Time Position Orientation Groundspeed Altitude Reporting Facility
EDT Latitude Longitude Course Direction KTS MPH feet Rate Location/Type
Mon 03:46:00 PM 41.1790 -80.8210 217° Southwest  Level FlightAware Approximate
Mon 03:46:29 PM 41.1789 -80.8567 238° Southwest 110 127 3,700  Level Indianapolis Center
Mon 03:47:00 PM 41.1586 -80.8577 246° West  Level FlightAware Approximate
Mon 03:47:31 PM 41.1622 -80.8917 238° Southwest 110 127 4,200  Level Indianapolis Center
Mon 03:48:00 PM 41.1433 -80.9002 242° Southwest  Level FlightAware Approximate
Mon 03:48:33 PM 41.1472 -80.9250 239° Southwest 108 124 4,700  Level Indianapolis Center
Mon 03:49:00 PM 41.1266 -80.9418 242° Southwest  Level FlightAware Approximate
Mon 03:49:35 PM 41.1311 -80.9581 237° Southwest 106 122 5,100  Level Indianapolis Center
Mon 03:50:00 PM 41.1091 -80.9828 238° Southwest  Level FlightAware Approximate
Mon 03:50:37 PM 41.1156 -80.9908 238° Southwest 105 121 5,500  Level Indianapolis Center
Mon 03:51:00 PM 41.0904 -81.0227 238° Southwest  Level FlightAware Approximate
Mon 03:51:39 PM 41.1000 -81.0275 241° Southwest 108 124 5,900  Level Indianapolis Center
Mon 03:52:41 PM 41.0819 -81.0628 236° Southwest 111 128 6,100 97 Climbing Indianapolis Center
Mon 03:53:43 PM 41.0639 -81.1028 239° Southwest 118 136 6,100  Level Indianapolis Center
Mon 03:54:45 PM 41.0419 -81.1508 239° Southwest 125 144 6,100  Level Indianapolis Center
Mon 03:55:47 PM 41.0208 -81.1922 236° Southwest 130 150 6,100  Level Indianapolis Center
Mon 03:56:49 PM 41.0019 -81.2339 239° Southwest 131 151 6,100  Level Indianapolis Center
Mon 03:57:51 PM 40.9831 -81.2758 239° Southwest 131 151 6,100  Level Indianapolis Center
Mon 03:58:53 PM 40.9642 -81.3161 238° Southwest 129 148 6,100  Level Indianapolis Center
Mon 03:59:55 PM 40.9450 -81.3564 238° Southwest 129 148 6,100  Level Indianapolis Center
Mon 04:00:57 PM 40.9258 -81.3964 238° Southwest 128 147 6,100  Level Indianapolis Center
Mon 04:01:59 PM 40.9069 -81.4358 238° Southwest 127 146 6,100  Level Indianapolis Center
Mon 04:03:01 PM 40.8853 -81.4839 239° Southwest 128 147 6,100  Level Indianapolis Center
Mon 04:04:03 PM 40.8653 -81.5250 237° Southwest 130 150 6,100  Level Indianapolis Center
Mon 04:05:05 PM 40.8467 -81.5650 238° Southwest 129 148 6,100  Level Indianapolis Center
Mon 04:06:07 PM 40.8269 -81.6058 237° Southwest 129 148 6,100  Level Indianapolis Center
Mon 04:07:09 PM 40.8067 -81.6469 237° Southwest 131 151 6,100  Level Indianapolis Center
Mon 04:08:11 PM 40.7872 -81.6869 237° Southwest 130 150 6,100  Level Indianapolis Center
Mon 04:09:13 PM 40.7681 -81.7275 238° Southwest 129 148 6,100  Level Indianapolis Center
Mon 04:10:15 PM 40.7486 -81.7672 237° Southwest 128 147 6,100  Level Indianapolis Center
Mon 04:12:18 PM 40.7086 -81.8536 239° Southwest 126 145 6,100  Level Indianapolis Center
Mon 04:13:20 PM 40.6875 -81.8919 234° Southwest 127 146 6,100  Level Indianapolis Center
Mon 04:14:22 PM 40.6689 -81.9344 240° Southwest 131 151 6,100  Level Indianapolis Center
Mon 04:15:24 PM 40.6503 -81.9756 239° Southwest 130 150 6,100  Level Indianapolis Center
Mon 04:16:26 PM 40.6303 -82.0114 234° Southwest 123 142 6,100  Level Indianapolis Center
Mon 04:17:28 PM 40.6125 -82.0486 238° Southwest 119 137 6,100  Level Indianapolis Center
Mon 04:18:30 PM 40.5956 -82.0878 240° Southwest 122 140 6,100  Level Indianapolis Center
Mon 04:19:14 PM 40.5800 -82.1206 238° Southwest 125 144 6,100  Level Indianapolis Center
Mon 04:19:32 PM 40.5758 -82.1267 228° Southwest 125 144 6,100  Level Indianapolis Center
Mon 04:20:15 PM 40.5586 -82.1622 237° Southwest 126 145 6,100  Level Indianapolis Center
Mon 04:20:34 PM 40.5525 -82.1714 229° Southwest 125 144 6,100  Level Indianapolis Center
Mon 04:21:15 PM 40.5397 -82.2014 241° Southwest 128 147 6,100  Level Indianapolis Center
Mon 04:21:36 PM 40.5344 -82.2111 234° Southwest 125 144 6,100  Level Indianapolis Center
Mon 04:22:34 PM 40.5156 -82.2536 240° Southwest 128 147 6,100  Level Indianapolis Center
Mon 04:23:35 PM 40.4944 -82.2897 232° Southwest 127 146 6,100  Level Indianapolis Center
Mon 04:24:41 PM 40.4758 -82.3306 239° Southwest 128 147 6,100  Level Indianapolis Center
Mon 04:25:30 PM 40.4583 -82.3681 238° Southwest 129 148 6,100  Level Indianapolis Center
Mon 04:26:31 PM 40.4392 -82.4072 237° Southwest 130 150 6,100  Level Indianapolis Center
Mon 04:27:26 PM 40.4200 -82.4433 235° Southwest 130 150 6,100  Level Indianapolis Center
Mon 04:27:47 PM 40.4169 -82.4503 240° Southwest 130 150 6,100  Level Indianapolis Center
Mon 04:28:26 PM 40.4008 -82.4825 237° Southwest 130 150 6,100  Level Indianapolis Center
Mon 04:28:49 PM 40.3942 -82.4975 240° Southwest 129 148 6,100  Level Indianapolis Center
Mon 04:29:27 PM 40.3817 -82.5214 236° Southwest 129 148 6,100  Level Indianapolis Center
Mon 04:29:51 PM 40.3750 -82.5364 240° Southwest 127 146 6,100  Level Indianapolis Center
Mon 04:30:53 PM 40.3558 -82.5761 238° Southwest 127 146 6,100  Level Indianapolis Center
Mon 04:31:22 PM 40.3456 -82.5967 237° Southwest 126 145 6,100  Level Indianapolis Center
Mon 04:31:55 PM 40.3361 -82.6150 236° Southwest 127 146 6,100  Level Indianapolis Center
Mon 04:32:23 PM 40.3239 -82.6381 235° Southwest 129 148 6,100  Level Indianapolis Center
Mon 04:32:57 PM 40.3161 -82.6553 239° Southwest 129 148 6,100  Level Indianapolis Center
Mon 04:33:24 PM 40.3044 -82.6797 238° Southwest 133 153 6,100  Level Indianapolis Center
Mon 04:33:59 PM 40.2956 -82.6969 236° Southwest 134 154 6,100  Level Indianapolis Center
Mon 04:34:31 PM 40.2828 -82.7236 238° Southwest 135 155 6,100  Level Indianapolis Center
Mon 04:35:01 PM 40.2761 -82.7383 239° Southwest 133 153 6,100  Level Indianapolis Center
Mon 04:35:32 PM 40.2611 -82.7650 234° Southwest 128 147 6,100  Level Indianapolis Center
Mon 04:36:03 PM 40.2547 -82.7753 231° Southwest 127 146 6,100  Level Indianapolis Center
Mon 04:36:27 PM 40.2464 -82.7989 245° Southwest 127 146 6,100  Level Indianapolis Center
Mon 04:37:05 PM 40.2356 -82.8178 233° Southwest 127 146 6,100 100 Level Indianapolis Center
Mon 04:37:27 PM 40.2250 -82.8400 238° Southwest 127 146 6,200  Climbing Indianapolis Center
Mon 04:38:07 PM 40.2133 -82.8606 233° Southwest 126 145 6,100 -98 Descending Indianapolis Center
Mon 04:38:28 PM 40.2056 -82.8789 241° Southwest 131 151 6,100  Level Indianapolis Center
Mon 04:39:09 PM 40.1922 -82.9044 236° Southwest 132 152 6,100  Level Indianapolis Center
Mon 04:40:11 PM 40.1722 -82.9442 237° Southwest 129 148 6,100  Level Indianapolis Center
Mon 04:41:31 PM 40.1453 -82.9975 237° Southwest 128 147 6,100  Level Indianapolis Center
Mon 04:42:15 PM 40.1325 -83.0233 237° Southwest 129 148 6,100  Level Indianapolis Center
Mon 04:42:32 PM 40.1256 -83.0389 240° Southwest 129 148 6,100  Level Indianapolis Center
Mon 04:43:17 PM 40.1139 -83.0636 238° Southwest 130 150 6,100  Level Indianapolis Center
Mon 04:43:32 PM 40.1064 -83.0775 235° Southwest 129 148 6,100  Level Indianapolis Center
Mon 04:44:19 PM 40.0939 -83.1031 237° Southwest 129 148 6,100  Level Indianapolis Center
Mon 04:45:21 PM 40.0731 -83.1425 235° Southwest 130 150 6,100 74 Level Indianapolis Center
Mon 04:45:40 PM 40.0647 -83.1625 241° Southwest 130 150 6,200 -97 Climbing Indianapolis Center
Mon 04:46:23 PM 40.0508 -83.1894 236° Southwest 129 148 6,000 -286 Descending Indianapolis Center
Mon 04:47:25 PM 40.0283 -83.2333 236° Southwest 137 158 5,700 -304 Descending Indianapolis Center
Mon 04:47:42 PM 40.0211 -83.2472 236° Southwest 143 165 5,600 -290 Descending Indianapolis Center
Mon 04:48:27 PM 40.0061 -83.2772 237° Southwest 142 163 5,400 -336 Descending Indianapolis Center
Mon 04:49:29 PM 39.9842 -83.3211 237° Southwest 142 163 5,000 -390 Descending Indianapolis Center
Mon 04:49:44 PM 39.9772 -83.3372 241° Southwest 145 167 4,900 -387 Descending Indianapolis Center
Mon 04:50:31 PM 39.9617 -83.3661 235° Southwest 145 167 4,600 -330 Descending Indianapolis Center
Mon 04:51:33 PM 39.9389 -83.4111 237° Southwest 147 169 4,300 -242 Descending Indianapolis Center
Mon 04:52:35 PM 39.9156 -83.4561 236° Southwest 148 170 4,100 -98 Descending Indianapolis Center
Mon 04:53:35 PM 39.8917 -83.5064 238° Southwest 137 158 4,100  Level Indianapolis Center
Mon 04:54:36 PM 39.8700 -83.5444 233° Southwest 136 157 4,100 48 Level Indianapolis Center
Mon 04:55:41 PM 39.8500 -83.5856 238° Southwest 136 157 4,200 -94 Climbing Indianapolis Center
Mon 04:56:44 PM 39.8258 -83.6342 237° Southwest 163 188 3,900 -242 Descending Indianapolis Center
Mon 04:57:45 PM 39.8061 -83.6717 236° Southwest 142 163 3,700 -313 Descending Indianapolis Center
Mon 04:58:39 PM 39.7817 -83.7208 237° Southwest 149 171 3,300 -261 Descending Indianapolis Center
Mon 04:59:40 PM 39.7594 -83.7642 236° Southwest 144 166 3,200 -47 Descending Indianapolis Center
Mon 05:00:47 PM 39.7375 -83.8050 235° Southwest 131 151 3,200  Level Indianapolis Center
Mon 05:01:42 PM 39.7203 -83.8408 238° Southwest 129 148 3,200  Level Indianapolis Center
Mon 05:02:43 PM 39.6983 -83.8814 235° Southwest 131 151 3,200  Level Indianapolis Center
Mon 05:03:43 PM 39.6761 -83.9247 236° Southwest 133 153 3,200  Level Indianapolis Center
Mon 05:04:44 PM 39.6583 -83.9656 241° Southwest 133 153 3,200 -79 Level Indianapolis Center
Mon 05:04:59 PM 39.6547 -83.9675 203° Southwest 133 153 3,100  Descending Indianapolis Center
Mon 05:05:45 PM 39.6367 -84.0008 235° Southwest 126 145 3,200  Climbing Indianapolis Center
Mon 05:06:01 PM 39.6314 -84.0122 239° Southwest 130 150 3,100  Descending Indianapolis Center
Mon 05:06:46 PM 39.6150 -84.0386 231° Southwest 128 147 3,200 97 Climbing Indianapolis Center
Mon 05:07:03 PM 39.6108 -84.0500 245° Southwest 128 147 3,200  Level Indianapolis Center
Mon 05:07:53 PM 39.5925 -84.0844 235° Southwest 130 150 3,200  Level Indianapolis Center
Mon 05:08:48 PM 39.5753 -84.1175 236° Southwest 132 152 3,200  Level Indianapolis Center
Mon 05:09:49 PM 39.5531 -84.1606 236° Southwest 131 151 3,200  Level Indianapolis Center

Login

Don't have an account? Register now (free) for customized features, flight alerts, and more!